Location: Newark
(42.8481°N, 0.4872°E)
Time: 23:39:45
(UTC+00:00)

Transit 2A Rocket - Pass Details

Date: 29 October 2020
Orbit: 588 x 914 km, 66.7° (Epoch: 29 November)

Event Time Altitude Azimuth Distance (km) Brightness Sun altitude
Rises 08:20:00 0° 181° (S) 3,525 9.0 17.1°
Reaches altitude 10° 08:22:44 10° 173° (S) 2,594 8.6 17.4°
Maximum altitude 08:28:07 34° 110° (ESE) 1,457 8.0 18.2°
Drops below altitude 10° 08:33:24 10° 48° (NE) 2,552 7.9 18.9°
Sets 08:36:03 0° 40° (NE) 3,460 8.4 19.3°
